Location: Godiavel Galaoual
(15.2485°N, 12.6604°W)
Time: 07:37:00
(UTC+00:00)

Explorer 7 - Pass Details

Date: 19 June 2021
Orbit: 484 x 676 km, 50.3° (Epoch: 04 August)

Event Time Altitude Azimuth Distance (km) Brightness Sun altitude
Rises 04:55:35 0° 344° (NNW) 2,794 10.6 -19.0°
Reaches altitude 10° 04:58:44 10° 7° (N) 1,848 10.0 -18.4°
Maximum altitude 05:01:13 15° 44° (NE) 1,504 10.1 -17.9°
Drops below altitude 10° 05:03:39 10° 81° (E) 1,778 10.5 -17.4°
Sets 05:06:34 0° 104° (ESE) 2,627 11.0 -16.8°
